Location: Monteux
(44.0348°N, 4.9972°E)
Time: 16:39:37
(UTC+00:00)

Cosmos 2181 Rocket - Pass Details

Date: 30 November 2020
Orbit: 951 x 1015 km, 82.9° (Epoch: 17 January)

Event Time Altitude Azimuth Distance (km) Brightness Sun altitude
Rises 17:10:46 0° 185° (S) 3,735 7.4 -11.8°
Reaches altitude 10° 17:13:18 10° 185° (S) 2,784 6.7 -12.3°
Maximum altitude 17:19:43 88° 99° (E) 1,011 4.1 -13.4°
Drops below altitude 10° 17:26:06 10° 8° (N) 2,768 6.1 -14.5°
Sets 17:28:37 0° 9° (N) 3,712 6.8 -14.9°
